VENUS11 KSAV-KADW

Flight info

Callsign VENUS11
Flight time 1h 10m
Altitude 41000
Route JROSS ETBUY AUDII THHMP VUDOO2
Aircraft GLF5/M-SBDE2E3FGHIJ3J4J5P2RWXY/LB1D1

Departure

Time 2026-05-09 01:06
Airport Savannah Hilton Head International Airport (KSAV)

Arrival

Time 2026-05-09 02:16
Airport Joint Base Andrews (KADW)
Time Latitude Longitude Altitude Speed Heading
2026-05-09 00:45 32.12352 -81.20351 31 ft 0 kts 310°
2026-05-09 01:00 32.12358 -81.20355 31 ft 3 kts 340°
2026-05-09 01:00 32.12383 -81.20312 33 ft 7 kts 84°
2026-05-09 01:00 32.12385 -81.20257 33 ft 5 kts 90°
2026-05-09 01:00 32.12389 -81.20219 34 ft 4 kts 64°
2026-05-09 01:01 32.12415 -81.20203 35 ft 5 kts
2026-05-09 01:01 32.12468 -81.20203 36 ft 12 kts
2026-05-09 01:01 32.12569 -81.20247 35 ft 16 kts 326°
2026-05-09 01:01 32.12669 -81.20313 35 ft 9 kts 332°
2026-05-09 01:02 32.12731 -81.20343 34 ft 11 kts 322°
2026-05-09 01:02 32.12752 -81.20443 32 ft 13 kts 270°
2026-05-09 01:02 32.12755 -81.20567 30 ft 15 kts 271°
2026-05-09 01:02 32.12755 -81.20704 28 ft 17 kts 272°
2026-05-09 01:03 32.12756 -81.20890 26 ft 28 kts 270°
2026-05-09 01:03 32.12758 -81.21097 23 ft 22 kts 269°
2026-05-09 01:03 32.12762 -81.21296 20 ft 25 kts 272°
2026-05-09 01:03 32.12770 -81.21461 18 ft 14 kts 270°
2026-05-09 01:04 32.12767 -81.21596 18 ft 18 kts 269°
2026-05-09 01:04 32.12767 -81.21760 16 ft 19 kts 271°
2026-05-09 01:04 32.12820 -81.21859 15 ft 8 kts
2026-05-09 01:04 32.12868 -81.21833 16 ft 6 kts 55°
2026-05-09 01:05 32.12872 -81.21787 17 ft 4 kts 91°
2026-05-09 01:05 32.12870 -81.21757 17 ft 2 kts 92°
2026-05-09 01:05 32.12867 -81.21301 22 ft 106 kts 91°
2026-05-09 01:06 32.12877 -81.20197 625 ft 147 kts 90°
2026-05-09 01:06 32.12901 -81.18943 1426 ft 154 kts 90°
2026-05-09 01:06 32.12938 -81.17741 1454 ft 148 kts 89°
2026-05-09 01:06 32.12971 -81.16468 1566 ft 175 kts 90°
2026-05-09 01:07 32.13014 -81.15089 2858 ft 165 kts 89°
2026-05-09 01:07 32.13041 -81.13731 3749 ft 179 kts 90°
2026-05-09 01:07 32.13089 -81.12210 4716 ft 194 kts 77°
2026-05-09 01:07 32.13765 -81.10927 5844 ft 191 kts 30°
2026-05-09 01:08 32.15120 -81.10298 6197 ft 239 kts
2026-05-09 01:08 32.16961 -81.09911 6673 ft 287 kts
2026-05-09 01:08 32.18901 -81.09486 8271 ft 286 kts
2026-05-09 01:08 32.20071 -81.09230 9156 ft 289 kts
2026-05-09 01:09 32.22092 -81.08793 10384 ft 302 kts
2026-05-09 01:09 32.24120 -81.08318 11850 ft 306 kts
2026-05-09 01:09 32.26126 -81.07404 13158 ft 319 kts 21°
2026-05-09 01:09 32.28060 -81.06025 14423 ft 332 kts 28°
2026-05-09 01:10 32.29946 -81.04409 15702 ft 342 kts 32°
2026-05-09 01:10 32.31371 -81.03083 16608 ft 350 kts 33°
2026-05-09 01:10 32.33265 -81.01241 17764 ft 360 kts 35°
2026-05-09 01:10 32.35214 -80.99303 18841 ft 373 kts 35°
2026-05-09 01:11 32.37190 -80.97310 20014 ft 382 kts 34°
2026-05-09 01:11 32.39246 -80.95234 21138 ft 393 kts 35°
2026-05-09 01:11 32.41335 -80.93111 22286 ft 401 kts 34°
2026-05-09 01:11 32.43482 -80.90934 23231 ft 414 kts 34°
2026-05-09 01:12 32.45683 -80.88692 24386 ft 420 kts 34°
2026-05-09 01:12 32.47925 -80.86415 25490 ft 428 kts 34°
2026-05-09 01:12 32.50199 -80.84097 26654 ft 431 kts 33°
2026-05-09 01:12 32.52484 -80.81770 27677 ft 438 kts 33°
2026-05-09 01:13 32.54860 -80.79351 28436 ft 451 kts 33°
2026-05-09 01:13 32.57242 -80.76914 29764 ft 448 kts 33°
2026-05-09 01:13 32.59669 -80.74449 30099 ft 472 kts 33°
2026-05-09 01:13 32.62246 -80.71819 30144 ft 502 kts 34°
2026-05-09 01:14 32.64985 -80.69021 30158 ft 531 kts 34°
2026-05-09 01:14 32.67834 -80.66105 30234 ft 556 kts 35°
2026-05-09 01:14 32.70890 -80.63251 31143 ft 544 kts 24°
2026-05-09 01:14 32.74205 -80.61354 32446 ft 525 kts 14°
2026-05-09 01:15 32.77638 -80.59737 33281 ft 524 kts 13°
2026-05-09 01:15 32.81009 -80.58174 34353 ft 520 kts 11°
2026-05-09 01:15 32.84384 -80.56617 35614 ft 513 kts 10°
2026-05-09 01:15 32.87732 -80.55077 36406 ft 514 kts 10°
2026-05-09 01:16 32.91063 -80.53537 37461 ft 509 kts
2026-05-09 01:16 32.94364 -80.52014 38360 ft 506 kts
2026-05-09 01:16 32.97665 -80.50491 39090 ft 507 kts
2026-05-09 01:17 33.04184 -80.47475 40803 ft 499 kts
2026-05-09 01:17 33.07411 -80.45982 41015 ft 494 kts
2026-05-09 01:17 33.13824 -80.43011 41043 ft 494 kts
2026-05-09 01:18 33.20262 -80.40022 41050 ft 495 kts
2026-05-09 01:18 33.26739 -80.37009 41043 ft 499 kts
2026-05-09 01:19 33.33178 -80.34008 41010 ft 498 kts
2026-05-09 01:19 33.39649 -80.30988 41024 ft 495 kts
2026-05-09 01:20 33.46084 -80.27983 41035 ft 497 kts
2026-05-09 01:20 33.52578 -80.24943 41023 ft 498 kts
2026-05-09 01:21 33.59053 -80.21905 41050 ft 497 kts
2026-05-09 01:21 33.65500 -80.18877 41065 ft 495 kts
2026-05-09 01:22 33.71952 -80.15844 41040 ft 497 kts
2026-05-09 01:22 33.78432 -80.12791 41036 ft 498 kts
2026-05-09 01:23 33.84846 -80.09761 41050 ft 492 kts
2026-05-09 01:23 33.91260 -80.06732 41039 ft 492 kts
2026-05-09 01:24 33.97698 -80.03687 41062 ft 499 kts
2026-05-09 01:24 34.04236 -80.00586 41048 ft 501 kts
2026-05-09 01:25 34.10753 -79.97488 41053 ft 499 kts
2026-05-09 01:25 34.17278 -79.94384 41045 ft 498 kts
2026-05-09 01:26 34.23724 -79.91309 41036 ft 496 kts
2026-05-09 01:26 34.30177 -79.88235 41039 ft 499 kts
2026-05-09 01:27 34.36745 -79.85092 41053 ft 503 kts
2026-05-09 01:27 34.43277 -79.81961 41046 ft 501 kts
2026-05-09 01:28 34.49744 -79.78859 41044 ft 498 kts
2026-05-09 01:28 34.56251 -79.75734 41042 ft 500 kts
2026-05-09 01:29 34.62756 -79.72600 41051 ft 500 kts
2026-05-09 01:29 34.69250 -79.69473 41047 ft 501 kts
2026-05-09 01:30 34.75768 -79.66318 41033 ft 503 kts
2026-05-09 01:30 34.82359 -79.63135 41058 ft 508 kts
2026-05-09 01:31 34.88863 -79.59973 41037 ft 493 kts
2026-05-09 01:31 34.95316 -79.56853 41053 ft 509 kts
2026-05-09 01:32 35.01911 -79.53633 41039 ft 497 kts
2026-05-09 01:32 35.08338 -79.50510 41043 ft 498 kts
2026-05-09 01:33 35.14773 -79.46944 41061 ft 519 kts 13°
2026-05-09 01:33 35.21270 -79.42922 41035 ft 514 kts 11°
2026-05-09 01:34 35.27654 -79.38982 41050 ft 512 kts 12°
2026-05-09 01:34 35.34092 -79.34997 41067 ft 512 kts 11°
2026-05-09 01:35 35.40543 -79.31007 41007 ft 524 kts 12°
2026-05-09 01:35 35.47044 -79.26962 41057 ft 521 kts 12°
2026-05-09 01:36 35.53483 -79.22955 41032 ft 519 kts 12°
2026-05-09 01:36 35.59972 -79.18919 41034 ft 527 kts 13°
2026-05-09 01:37 35.63196 -79.16892 41011 ft 508 kts 12°
2026-05-09 01:37 35.66373 -79.14909 39886 ft 510 kts 11°
2026-05-09 01:37 35.69583 -79.12923 37610 ft 530 kts 13°
2026-05-09 01:37 35.72845 -79.10880 36214 ft 534 kts 13°
2026-05-09 01:38 35.76202 -79.08779 35005 ft 544 kts 14°
2026-05-09 01:38 35.79619 -79.06632 35027 ft 548 kts 14°
2026-05-09 01:38 35.86405 -79.02367 35024 ft 547 kts 14°
2026-05-09 01:39 35.93261 -78.98051 35048 ft 548 kts 13°
2026-05-09 01:39 36.00050 -78.93775 35041 ft 544 kts 14°
2026-05-09 01:40 36.06903 -78.89449 35036 ft 554 kts 14°
2026-05-09 01:40 36.13735 -78.85116 35032 ft 547 kts 13°
2026-05-09 01:41 36.20487 -78.80566 35003 ft 566 kts 25°
2026-05-09 01:41 36.23506 -78.77330 35047 ft 580 kts 32°
2026-05-09 01:41 36.26477 -78.73945 35037 ft 577 kts 31°
2026-05-09 01:42 36.32452 -78.67172 35036 ft 582 kts 32°
2026-05-09 01:42 36.38446 -78.60362 35035 ft 577 kts 32°
2026-05-09 01:43 36.44388 -78.53602 35036 ft 574 kts 31°
2026-05-09 01:43 36.50292 -78.46873 35042 ft 575 kts 31°
2026-05-09 01:44 36.56202 -78.40125 35035 ft 576 kts 31°
2026-05-09 01:44 36.62189 -78.33263 35014 ft 578 kts 32°
2026-05-09 01:45 36.68095 -78.26487 35010 ft 576 kts 31°
2026-05-09 01:45 36.73984 -78.19712 35021 ft 576 kts 32°
2026-05-09 01:46 36.79862 -78.12937 35026 ft 576 kts 32°
2026-05-09 01:46 36.85833 -78.06039 35029 ft 577 kts 31°
2026-05-09 01:47 36.91719 -77.99220 35031 ft 576 kts 31°
2026-05-09 01:47 36.97660 -77.92326 35034 ft 576 kts 31°
2026-05-09 01:48 37.03563 -77.85468 35040 ft 575 kts 31°
2026-05-09 01:48 37.09432 -77.78623 35033 ft 574 kts 31°
2026-05-09 01:49 37.15330 -77.71735 35020 ft 577 kts 31°
2026-05-09 01:49 37.21171 -77.64894 35057 ft 571 kts 31°
2026-05-09 01:50 37.27054 -77.57988 35067 ft 570 kts 31°
2026-05-09 01:50 37.32859 -77.51161 35063 ft 568 kts 31°
2026-05-09 01:51 37.38650 -77.44340 35059 ft 569 kts 31°
2026-05-09 01:51 37.44470 -77.37462 35049 ft 567 kts 31°
2026-05-09 01:52 37.47287 -77.34154 34088 ft 542 kts 28°
2026-05-09 01:52 37.50199 -77.31533 30585 ft 529 kts 11°
2026-05-09 01:52 37.53618 -77.30557 29755 ft 482 kts 356°
2026-05-09 01:52 37.56911 -77.29836 28586 ft 483 kts
2026-05-09 01:53 37.60143 -77.29011 28504 ft 453 kts 360°
2026-05-09 01:53 37.63164 -77.28231 26794 ft 448 kts
2026-05-09 01:53 37.66302 -77.27428 24961 ft 441 kts
2026-05-09 01:53 37.69307 -77.26638 23595 ft 425 kts
2026-05-09 01:54 37.72237 -77.25870 21974 ft 416 kts
2026-05-09 01:54 37.75057 -77.25097 20389 ft 409 kts
2026-05-09 01:54 37.77754 -77.23909 18844 ft 406 kts 15°
2026-05-09 01:54 37.80362 -77.22652 17485 ft 394 kts 15°
2026-05-09 01:55 37.82946 -77.21416 15967 ft 387 kts 15°
2026-05-09 01:55 37.85467 -77.20211 14486 ft 379 kts 15°
2026-05-09 01:55 37.87959 -77.19022 13186 ft 376 kts 16°
2026-05-09 01:55 37.90483 -77.17801 13019 ft 368 kts 18°
2026-05-09 01:56 37.92919 -77.16248 13019 ft 372 kts 23°
2026-05-09 01:56 37.95324 -77.14625 13016 ft 373 kts 23°
2026-05-09 01:56 37.97691 -77.12908 13008 ft 377 kts 33°
2026-05-09 01:56 37.99427 -77.10331 13019 ft 388 kts 58°
2026-05-09 01:57 38.00555 -77.07091 13022 ft 393 kts 65°
2026-05-09 01:57 38.01613 -77.03841 13014 ft 390 kts 65°
2026-05-09 01:57 38.02667 -77.00607 13023 ft 391 kts 65°
2026-05-09 01:57 38.03711 -76.97403 13021 ft 379 kts 65°
2026-05-09 01:58 38.04699 -76.94357 12988 ft 336 kts 65°
2026-05-09 01:58 38.05608 -76.91570 13011 ft 327 kts 64°
2026-05-09 01:58 38.06525 -76.88757 13027 ft 330 kts 64°
2026-05-09 01:58 38.07435 -76.85966 13035 ft 332 kts 64°
2026-05-09 01:59 38.08345 -76.83157 13033 ft 332 kts 64°
2026-05-09 01:59 38.09460 -76.80424 13025 ft 325 kts 45°
2026-05-09 01:59 38.11227 -76.78510 13070 ft 322 kts 31°
2026-05-09 01:59 38.13098 -76.76798 13028 ft 319 kts 30°
2026-05-09 02:00 38.14948 -76.75115 13030 ft 318 kts 30°
2026-05-09 02:00 38.16766 -76.73470 13034 ft 318 kts 30°
2026-05-09 02:00 38.18686 -76.71733 13027 ft 318 kts 30°
2026-05-09 02:00 38.20557 -76.70042 13027 ft 316 kts 30°
2026-05-09 02:01 38.22466 -76.68471 13012 ft 310 kts 16°
2026-05-09 02:01 38.24533 -76.67807 13043 ft 302 kts
2026-05-09 02:01 38.26682 -76.67306 13025 ft 303 kts
2026-05-09 02:01 38.28856 -76.66799 13021 ft 303 kts
2026-05-09 02:02 38.31027 -76.66293 12944 ft 294 kts
2026-05-09 02:02 38.33177 -76.65797 12210 ft 301 kts
2026-05-09 02:02 38.35312 -76.65301 11809 ft 295 kts
2026-05-09 02:02 38.37379 -76.64819 11326 ft 294 kts
2026-05-09 02:03 38.39476 -76.64332 10866 ft 291 kts
2026-05-09 02:03 38.41549 -76.63849 10435 ft 287 kts
2026-05-09 02:03 38.43579 -76.63377 9940 ft 286 kts
2026-05-09 02:03 38.45609 -76.62904 9458 ft 284 kts
2026-05-09 02:04 38.47618 -76.62481 8977 ft 280 kts 359°
2026-05-09 02:04 38.49639 -76.62579 8472 ft 276 kts 352°
2026-05-09 02:04 38.51669 -76.62759 7984 ft 275 kts 352°
2026-05-09 02:04 38.53577 -76.62924 7550 ft 273 kts 352°
2026-05-09 02:05 38.55561 -76.63094 7036 ft 274 kts 352°
2026-05-09 02:05 38.57497 -76.63258 6590 ft 272 kts 352°
2026-05-09 02:05 38.59394 -76.63419 6125 ft 272 kts 352°
2026-05-09 02:05 38.61293 -76.63580 5643 ft 272 kts 352°
2026-05-09 02:06 38.63205 -76.63741 5151 ft 274 kts 352°
2026-05-09 02:06 38.65109 -76.63905 4719 ft 273 kts 352°
2026-05-09 02:06 38.67011 -76.64066 4246 ft 274 kts 352°
2026-05-09 02:07 38.70839 -76.64391 3343 ft 274 kts 352°
2026-05-09 02:07 38.72741 -76.64555 3019 ft 276 kts 352°
2026-05-09 02:07 38.74668 -76.64718 3009 ft 274 kts 352°
2026-05-09 02:07 38.76569 -76.64881 3009 ft 273 kts 352°
2026-05-09 02:08 38.78507 -76.65046 3014 ft 274 kts 352°
2026-05-09 02:08 38.80403 -76.65208 3009 ft 273 kts 352°
2026-05-09 02:08 38.82323 -76.65442 2989 ft 271 kts 341°
2026-05-09 02:08 38.84054 -76.66280 2999 ft 268 kts 332°
2026-05-09 02:09 38.85776 -76.67214 3003 ft 268 kts 332°
2026-05-09 02:09 38.87513 -76.68160 3006 ft 267 kts 332°
2026-05-09 02:09 38.89204 -76.69113 2994 ft 264 kts 327°
2026-05-09 02:09 38.90496 -76.70731 3017 ft 255 kts 300°
2026-05-09 02:10 38.91502 -76.72637 3009 ft 250 kts 299°
2026-05-09 02:10 38.92461 -76.74450 3022 ft 231 kts 299°
2026-05-09 02:10 38.93334 -76.76077 2993 ft 210 kts 299°
2026-05-09 02:10 38.94146 -76.77560 2993 ft 190 kts 299°
2026-05-09 02:11 38.94906 -76.78936 2992 ft 183 kts 299°
2026-05-09 02:11 38.95484 -76.80360 2996 ft 172 kts 274°
2026-05-09 02:11 38.95611 -76.81877 2998 ft 168 kts 269°
2026-05-09 02:11 38.95705 -76.83421 3070 ft 168 kts 268°
2026-05-09 02:12 38.95393 -76.84826 3229 ft 158 kts 236°
2026-05-09 02:12 38.94687 -76.85712 3073 ft 122 kts 220°
2026-05-09 02:12 38.93987 -76.86205 2816 ft 111 kts 205°
2026-05-09 02:12 38.93237 -76.86521 2406 ft 109 kts 201°
2026-05-09 02:13 38.92511 -76.86750 2114 ft 108 kts 195°
2026-05-09 02:13 38.91747 -76.86877 1869 ft 111 kts 191°
2026-05-09 02:13 38.90968 -76.86940 1559 ft 112 kts 188°
2026-05-09 02:13 38.90179 -76.86969 1346 ft 112 kts 185°
2026-05-09 02:14 38.89307 -76.87000 1278 ft 141 kts 185°
2026-05-09 02:14 38.88309 -76.87050 1266 ft 143 kts 185°
2026-05-09 02:14 38.87305 -76.87061 1195 ft 144 kts 183°
2026-05-09 02:14 38.86230 -76.87060 1095 ft 148 kts 182°
2026-05-09 02:15 38.85224 -76.87049 853 ft 149 kts 182°
2026-05-09 02:15 38.84150 -76.87059 719 ft 147 kts 181°
2026-05-09 02:15 38.83138 -76.87062 490 ft 143 kts 180°
2026-05-09 02:15 38.82143 -76.87065 311 ft 136 kts 179°
2026-05-09 02:16 38.81280 -76.87059 263 ft 99 kts 179°
2026-05-09 02:16 38.80800 -76.87058 263 ft 51 kts 183°
2026-05-09 02:16 38.80535 -76.87064 261 ft 28 kts 180°
2026-05-09 02:16 38.80376 -76.87086 260 ft 19 kts 199°
2026-05-09 02:17 38.80257 -76.87157 258 ft 18 kts 210°
2026-05-09 02:17 38.80152 -76.87231 258 ft 8 kts 206°
2026-05-09 02:17 38.80114 -76.87257 257 ft 0 kts 206°
2026-05-09 02:18 38.80105 -76.87263 257 ft 5 kts 206°
2026-05-09 02:18 38.80064 -76.87287 257 ft 6 kts 205°
2026-05-09 02:18 38.80031 -76.87330 257 ft 6 kts 240°
2026-05-09 02:18 38.80018 -76.87383 258 ft 6 kts 265°
2026-05-09 02:19 38.80053 -76.87437 260 ft 10 kts 348°
2026-05-09 02:19 38.80168 -76.87444 262 ft 20 kts 359°
2026-05-09 02:19 38.80312 -76.87443 263 ft 19 kts
2026-05-09 02:19 38.80448 -76.87445 265 ft 18 kts 355°
2026-05-09 02:20 38.80569 -76.87444 265 ft 10 kts
2026-05-09 02:20 38.80615 -76.87492 266 ft 9 kts 274°
2026-05-09 02:20 38.80620 -76.87563 268 ft 6 kts 295°
2026-05-09 02:20 38.80661 -76.87588 268 ft 6 kts 357°
2026-05-09 02:21 38.80696 -76.87588 268 ft 0 kts 359°